Dewpoint
57 56 56 56 56 56 56 56 56 56 56 55 54 54 54 54 47 56 61 64 65 64 64 64 65 65 65 65 65 65 65 66 66
51 53 53 53 53 52 52 52 52 52 52 51 51 52 52 51 48 55 57 62 64 64 65 64 64 64 65 66 65 65 66 66 66
51 51 51 52 52 51 51 50 50 51 51 52 52 52 54 50 48 54 56 59 61 61 61 61 61 62 63 65 65 65 65 65 65
50 51 51 51 50 50 50 47 46 45 45 50 50 53 50 45 52 54 54 56 56 58 60 59 59 60 62 63 64 64 64 64 65
50 50 51 50 46 45 44 43 41 40 41 42 42 47 46 50 52 54 56 53 52 52 55 57 58 59 62 61 61 62 62 63 64
47 49 46 43 41 40 40 40 39 37 35 37 38 35 42 47 54 56 57 52 53 52 53 58 61 60 59 59 58 59 61 62 63
41 40 40 39 38 37 38 38 36 31 28 28 29 28 40 52 55 56 56 54 56 56 57 54 56 57 56 56 60 59 59 59 59
37 32 29 29 31 28 29 29 29 30 30 29 29 29 39 51 54 56 55 54 55 52 53 54 54 53 53 56 54 54 55 55 56
34 30 29 28 29 28 30 30 30 30 32 31 29 31 41 51 53 53 54 53 53 53 55 55 54 54 59 58 57 56 55 53 54
32 30 29 28 30 30 30 30 31 31 32 32 30 30 39 49 52 52 54 53 53 53 52 51 51 53 52 55 54 53 51 51 53
31 30 29 28 31 32 31 31 32 32 33 32 32 30 32 45 51 51 52 52 50 51 52 51 51 52 51 50 50 51 51 51 51
32 30 29 29 31 32 32 31 32 32 33 32 32 32 31 41 48 51 51 49 49 47 47 47 48 49 50 50 50 49 49 50 51
34 32 31 30 32 32 32 31 32 33 33 33 33 32 32 35 46 50 50 47 46 46 45 44 43 42 43 43 46 47 47 47 48
36 36 36 33 33 33 33 32 32 33 33 33 33 33 34 34 46 46 49 47 46 44 43 44 42 41 41 40 41 42 43 43 44
37 38 39 38 36 35 36 35 34 33 33 33 32 34 37 35 43 46 46 45 45 43 42 40 38 41 42 41 39 39 41 41 43
39 40 41 39 38 37 37 36 35 34 34 33 32 32 37 38 40 39 44 46 45 44 41 38 37 37 40 40 39 39 40 41 42
43 42 41 42 41 40 39 37 36 35 35 34 32 29 28 31 31 33 38 41 38 37 38 37 38 38 37 37 40 40 40 40 41
45 43 43 42 42 41 40 39 37 35 35 36 32 30 28 31 32 32 33 33 34 35 36 35 36 36 36 37 37 39 40 39 41
44 44 43 43 43 42 42 41 39 37 38 37 35 34 33 31 31 32 33 34 35 35 35 35 35 35 35 36 38 40 41 41 42
45 44 44 43 44 43 42 42 41 40 39 38 37 36 35 34 32 31 33 35 35 35 35 35 35 34 35 35 36 39 40 41 41
Wind_Speed
9 9 9 9 9 9 10 10 10 10 10 10 10 11 13 12 11 10 11 6 1 2 2 2 4 6 5 5 5 3 7 7 6
9 9 9 9 9 9 10 10 10 10 9 10 10 10 10 7 8 8 10 10 6 3 5 6 7 7 7 5 5 5 7 9 8
10 9 10 9 10 10 11 11 11 11 11 9 9 10 10 6 4 6 8 11 7 5 5 6 6 6 7 8 7 4 6 7 7
9 9 10 10 10 9 11 10 10 12 13 12 10 10 8 6 3 3 6 8 6 6 5 5 5 6 6 6 8 8 6 5 5
6 8 9 9 10 11 11 11 11 12 12 14 13 10 8 5 4 4 4 6 7 6 5 5 5 5 4 6 7 8 8 8 8
7 9 10 11 11 11 11 12 12 12 12 12 14 10 8 4 3 5 8 6 5 4 4 5 5 5 6 6 6 6 6 7 8
7 9 10 10 12 12 12 12 12 12 10 11 11 9 8 3 4 5 7 7 4 3 6 5 8 6 6 4 4 7 7 7 7
7 7 8 9 10 10 11 12 12 11 10 10 10 8 6 3 3 5 6 6 6 4 6 5 5 4 4 2 2 5 6 6 8
6 6 7 8 8 10 10 10 11 11 11 10 10 9 7 1 2 4 6 6 5 3 4 3 3 4 8 4 4 6 7 8 8
3 4 6 7 8 9 10 10 11 11 11 10 9 9 8 4 2 2 5 6 6 5 5 6 6 8 6 6 7 8 7 7 9
3 4 5 7 7 7 7 8 9 9 10 11 10 9 6 4 2 1 2 4 5 5 5 5 5 5 5 6 5 6 6 7 10
2 3 5 5 6 7 8 9 9 11 11 11 11 10 8 4 3 4 2 1 3 3 4 5 5 6 6 6 6 6 7 8 9
1 2 4 4 6 7 9 9 11 12 11 13 13 9 7 5 4 5 4 3 1 2 3 4 5 6 7 7 7 7 8 8 9
1 1 3 4 5 6 7 6 6 11 14 16 12 10 8 5 1 4 5 5 4 2 4 5 6 6 7 8 8 8 9 9 9
2 1 2 3 4 5 6 5 6 4 11 12 11 6 7 1 1 3 4 5 5 5 4 4 6 9 9 9 11 12 10 10 10
3 2 2 2 3 4 4 4 6 5 11 8 11 5 7 6 3 4 5 5 5 6 6 6 7 9 11 12 12 13 12 11 10
5 4 3 3 4 5 5 4 4 3 7 5 2 6 5 5 7 8 5 5 5 7 7 7 11 11 11 12 13 13 13 13 12
4 3 2 2 2 5 5 4 4 5 3 6 1 3 3 9 4 6 5 10 8 6 9 11 12 12 11 11 13 14 14 14 14
3 2 1 2 3 4 4 3 3 2 6 4 3 2 2 3 8 5 7 8 17 14 14 14 15 14 12 12 13 15 15 14 14
1 1 1 3 4 4 5 6 4 1 2 2 3 3 3 3 7 11 7 14 8 10 10 14 14 11 9 10 10 13 15 17 17
Wind_Direction
45 38 32 29 21 15 10 3 358 355 353 348 347 347 350 354 348 352 349 3 6 91 107 5 350 344 329 318 298 258 236 241 252
46 42 34 32 27 23 17 8 0 355 353 350 352 355 355 345 349 358 360 8 55 65 44 49 37 27 6 351 329 296 272 257 253
51 52 47 42 33 30 23 19 15 5 360 350 354 357 357 350 345 360 2 5 28 33 36 31 24 17 19 24 15 340 307 283 271
48 42 35 32 24 19 11 12 16 12 3 11 0 4 20 20 44 20 3 358 2 1 0 360 5 3 14 19 24 25 15 357 337
28 31 22 24 27 24 18 16 16 18 14 8 7 12 19 35 13 4 344 348 337 331 331 339 345 347 21 17 7 14 14 16 23
45 38 41 33 27 23 16 13 14 15 13 14 8 10 3 8 16 355 339 351 352 353 355 13 24 18 3 355 353 3 20 28 27
52 37 34 28 25 23 17 16 15 15 11 4 12 11 0 8 4 360 3 351 6 40 21 343 343 348 342 337 44 36 17 7 5
42 34 26 21 19 20 12 10 12 7 7 5 4 5 10 344 357 359 16 8 358 10 336 3 332 331 316 342 342 18 17 6 358
41 34 21 22 14 15 11 7 2 4 4 5 359 360 357 354 356 356 17 22 9 357 350 9 341 326 37 44 64 53 22 348 332
39 29 26 19 12 13 5 4 359 359 355 358 2 354 353 338 336 6 16 30 23 15 340 326 333 354 352 14 22 14 355 333 327
46 28 19 17 12 2 359 358 352 351 350 344 349 340 334 332 259 306 3 56 41 27 16 13 7 351 347 346 345 343 337 340 330
63 26 12 8 1 358 359 358 356 355 349 343 335 332 320 308 245 221 225 43 46 33 27 21 7 356 352 346 339 330 334 335 335
76 15 359 355 6 6 360 356 348 350 350 338 329 326 313 289 248 218 219 227 271 341 343 356 355 341 337 333 328 327 327 327 327
192 4 354 1 3 7 359 345 354 340 343 334 329 329 304 278 240 231 226 240 251 263 303 314 325 321 319 324 330 327 326 323 320
222 329 350 5 359 353 358 344 336 324 339 327 332 344 353 268 274 275 264 255 259 276 286 305 315 312 306 311 316 319 307 315 315
230 257 294 330 339 334 340 336 348 341 347 348 345 352 23 63 358 337 301 294 296 287 295 302 308 306 306 305 311 314 313 311 309
225 244 287 319 328 337 352 9 346 332 12 3 347 352 336 340 24 18 14 32 357 336 338 328 314 303 295 290 295 302 310 308 305
237 241 272 317 334 338 342 345 2 347 337 8 15 348 323 332 330 1 64 9 11 11 338 325 323 324 306 292 289 290 294 303 305
247 256 279 329 347 347 347 1 3 2 345 345 39 327 257 308 316 327 323 356 337 324 326 324 320 321 321 317 299 290 290 294 300
271 175 78 18 10 1 353 351 348 2 325 328 329 332 314 280 254 293 304 317 301 299 307 305 308 322 339 338 338 331 315 304 299